{"data":{"norad_id":62416,"intl_designator":"2024-249H","name":"STARLINK-11446 [DTC]","alt_names":[],"object_type":"PAYLOAD","status":"ACTIVE","operator":null,"country":"US","launch_date":"2024-12-23","launch_site_code":"AFETR","launch_vehicle":null,"mission":null,"orbit_class":"UNKNOWN","rcs_meters":null,"size_class":null,"mass_kg":null,"dimensions":null,"purposes":["comms"],"wikipedia_slug":null,"has_3d_model":false,"image_url":null,"decayed_at":null,"tle_current":{"epoch":"2026-05-25T04:02:46.981248Z","epoch_age_seconds":71073,"freshness":"FRESH","line1":"1 62416U 24249H   26145.16859932  .00276511  00000+0  20814-2 0  9999","line2":"2 62416  42.9998  66.2292 0001584 246.8239 113.2462 15.70909888 81510","mean_motion":15.70909888,"eccentricity":0.0001584,"inclination_deg":42.9998,"raan_deg":66.2292,"arg_perigee_deg":246.8239,"mean_anomaly_deg":113.2462,"bstar":0.0020814,"rev_number":8151,"period_min":91.666620154345,"perigee_km":355.22858191164,"apogee_km":357.36205006934,"semimajor_km":6734.4323159905,"source":"CELESTRAK","updated_at":"2026-05-25T13:38:19.653508Z"}}}